Weather History for Houghton, MI

Change the Weather History Date:

Sunday, May 12, 2013

  Actual Average Record
Temperature  
Mean Temperature 34 °F -  
Max Temperature 39 °F 57 °F 86 °F (2004)
Min Temperature 30 °F 39 °F 27 °F (1953)
Degree Days  
Heating Degree Days 30    
Moisture  
Dew Point 24 °F    
Average Humidity 71    
Maximum Humidity 93    
Minimum Humidity 45    
Precipitation  
Precipitation 0.08 in - - ()
Sea Level Pressure  
Sea Level Pressure 30.04 in    
Wind  
Wind Speed 21 mph (NW)    
Max Wind Speed 25 mph    
Max Gust Speed 34 mph    
Visibility 7 miles    
Events Snow    
Averages and records for this station are not official NWS values.
T = Trace of Precipitation, MM = Missing Value Source: NWS Daily Summary

Daily Weather History Graph

Daily Weather History Graph

Search for Another Location

Airport:

Trip Planner

Search our weather history database for the weather conditions in past years. The results will help you decide how hot, cold, wet, or windy it might be!

Date:

Astronomy

May. 12, 2013 Rise Set
Actual Time 6:21 AM EDT 9:19 PM EDT
Civil Twilight 5:45 AM EDT 9:55 PM EDT
Nautical Twilight 4:59 AM EDT 10:42 PM EDT
Astronomical Twilight 4:04 AM EDT 11:38 PM EDT
Moon 8:14 AM EDT (5/12) 11:48 PM EDT (5/12)
Length of Visible Light 16h 10m
Length of Day
14h 58m
Waxing Crescent, 6% of the Moon is Illuminated
May 12
Waxing Crescent
May 18
First Quarter
May 25
Full
May 31
Last Quarter
Jun 8
New

Hourly Weather History & Observations

Time (EDT) Temp. Windchill Dew Point Humidity Pressure Visibility Wind Dir Wind Speed Gust Speed Precip Events Conditions
12:43 AM 32.0 °F 19.2 °F 30.2 °F 93% 29.94 in 1.0 mi NNW 23.0 mph 29.9 mph 0.04 in Snow Light Snow
12:53 AM 32.0 °F 18.6 °F 30.0 °F 92% 29.98 in 1.0 mi NNW 25.3 mph 32.2 mph 0.05 in Snow Light Snow
1:03 AM 32.0 °F 19.2 °F 30.2 °F 93% 29.94 in 1.2 mi NNW 23.0 mph 29.9 mph 0.00 in Snow Light Snow
1:32 AM 32.0 °F 19.5 °F 28.4 °F 87% 29.95 in 2.0 mi NNW 21.9 mph 32.2 mph 0.01 in Snow Light Snow
1:40 AM 32.0 °F 20.1 °F 30.2 °F 93% 29.95 in 1.5 mi NNW 19.6 mph 32.2 mph 0.02 in Snow Light Snow
1:53 AM 32.0 °F 18.9 °F 28.9 °F 88% 29.99 in 1.5 mi NNW 24.2 mph 34.5 mph 0.02 in Snow Light Snow
2:06 AM 32.0 °F 18.6 °F 28.4 °F 87% 29.96 in 2.0 mi NNW 25.3 mph 33.4 mph 0.00 in Snow Light Snow
2:37 AM 30.2 °F 17.8 °F 28.4 °F 93% 29.97 in 1.5 mi North 19.6 mph 31.1 mph 0.01 in Snow Light Snow
2:45 AM 30.2 °F 17.8 °F 28.4 °F 93% 29.97 in 1.5 mi NNW 19.6 mph 26.5 mph 0.01 in Snow Light Snow
2:53 AM 30.9 °F 18.1 °F 27.0 °F 85% 30.01 in 2.0 mi NNW 21.9 mph 33.4 mph 0.01 in Snow Light Snow
3:11 AM 32.0 °F 20.5 °F 26.6 °F 80% 29.97 in 5.0 mi NNW 18.4 mph 29.9 mph 0.00 in Snow Light Snow
3:53 AM 32.0 °F 19.5 °F 25.0 °F 75% 30.02 in 9.0 mi NNW 21.9 mph 32.2 mph 0.00 in   Overcast
4:53 AM 30.9 °F 18.4 °F 23.0 °F 72% 30.03 in 10.0 mi North 20.7 mph 28.8 mph 0.00 in   Overcast
5:53 AM 32.0 °F 21.2 °F 21.0 °F 64% 30.03 in 10.0 mi NNW 16.1 mph 28.8 mph 0.00 in   Overcast
6:16 AM 32.0 °F 21.2 °F 21.2 °F 64% 29.99 in 10.0 mi NNW 16.1 mph 24.2 mph 0.00 in   Overcast
6:53 AM 32.0 °F 21.6 °F 23.0 °F 69% 30.04 in 10.0 mi NNW 15.0 mph 25.3 mph 0.00 in   Overcast
7:53 AM 30.9 °F 18.7 °F 21.0 °F 67% 30.05 in 10.0 mi NNW 19.6 mph 29.9 mph 0.00 in   Overcast
8:53 AM 30.9 °F 19.1 °F 19.0 °F 61% 30.07 in 10.0 mi NNW 18.4 mph 32.2 mph 0.00 in   Overcast
9:53 AM 30.9 °F 17.8 °F 19.9 °F 64% 30.08 in 10.0 mi NNW 23.0 mph 31.1 mph 0.00 in   Overcast
10:53 AM 32.0 °F 19.5 °F 19.9 °F 61% 30.09 in 10.0 mi NNW 21.9 mph 31.1 mph 0.00 in   Overcast
11:29 AM 32.0 °F 19.8 °F 21.2 °F 64% 30.05 in 10.0 mi NW 20.7 mph 31.1 mph 0.00 in   Overcast
11:53 AM 32.0 °F 19.5 °F 21.9 °F 66% 30.09 in 10.0 mi NW 21.9 mph 31.1 mph 0.00 in   Overcast
12:06 PM 32.0 °F 18.9 °F 23.0 °F 69% 30.05 in 10.0 mi NW 24.2 mph 31.1 mph N/A   Overcast
12:53 PM 33.1 °F 20.9 °F 21.9 °F 64% 30.09 in 10.0 mi NW 21.9 mph 33.4 mph N/A   Overcast
1:53 PM 34.0 °F 22.4 °F 21.9 °F 61% 30.10 in 10.0 mi NW 20.7 mph 31.1 mph N/A   Overcast
2:53 PM 36.0 °F 25.0 °F 21.9 °F 57% 30.09 in 10.0 mi NW 20.7 mph 29.9 mph N/A   Scattered Clouds
3:53 PM 37.9 °F 28.2 °F 21.9 °F 53% 30.09 in 10.0 mi WNW 18.4 mph 25.3 mph N/A   Partly Cloudy
4:53 PM 39.9 °F 30.8 °F 21.9 °F 49% 30.10 in 10.0 mi NW 18.4 mph 23.0 mph N/A   Clear
5:53 PM 39.0 °F 31.4 °F 21.0 °F 49% 30.10 in 10.0 mi NW 12.7 mph 24.2 mph N/A   Clear
6:53 PM 39.0 °F 30.3 °F 19.0 °F 45% 30.11 in 10.0 mi WNW 16.1 mph - N/A   Clear
7:53 PM 39.0 °F 30.3 °F 19.9 °F 46% 30.11 in 10.0 mi WNW 16.1 mph - N/A   Clear
8:53 PM 37.0 °F 28.5 °F 23.0 °F 57% 30.11 in 10.0 mi WNW 13.8 mph - N/A   Clear
9:53 PM 34.0 °F 26.0 °F 24.1 °F 67% 30.11 in 10.0 mi WNW 10.4 mph - N/A   Clear
10:53 PM 30.9 °F 24.3 °F 25.0 °F 79% 30.12 in 10.0 mi WNW 6.9 mph - N/A   Clear
11:53 PM 30.9 °F 23.5 °F 25.0 °F 79% 30.12 in 10.0 mi WNW 8.1 mph - N/A   Clear